| time (UTC) | temp F | wind direction | speed MPH | gust MPH | rain 1hr in | rain 24hr in | rain mn in | humidity % | barometer mb |
| 20260503203057 | 51 | 194 | 4.0 | 10.0 | 0.00 | 0.00 | 0.00 | 36 | 1018.1 |
| 20260503201559 | 51 | 271 | 2.0 | 13.0 | 0.00 | 0.00 | 0.00 | 38 | 1018.3 |
| 20260503200047 | 50 | 254 | 5.0 | 13.0 | 0.00 | 0.00 | 0.00 | 38 | 1018.3 |
| 20260503194549 | 49 | 265 | 7.0 | 16.0 | 0.00 | 0.00 | 0.00 | 40 | 1018.5 |
| 20260503193049 | 49 | 286 | 5.0 | 12.0 | 0.00 | 0.00 | 0.00 | 38 | 1018.8 |
| 20260503191600 | 49 | 268 | 4.0 | 13.0 | 0.00 | 0.00 | 0.00 | 36 | 1018.8 |
| 20260503190047 | 49 | 232 | 4.0 | 10.0 | 0.00 | 0.00 | 0.00 | 40 | 1018.8 |
| 20260503184611 | 48 | 296 | 4.0 | 14.0 | 0.00 | 0.00 | 0.00 | 41 | 1018.8 |
| 20260503183103 | 49 | 242 | 5.0 | 14.0 | 0.00 | 0.00 | 0.00 | 40 | 1019.2 |
| 20260503181553 | 47 | 240 | 4.0 | 13.0 | 0.00 | 0.00 | 0.00 | 48 | 1019.3 |
| 20260503180054 | 46 | 0 | 3.0 | 11.0 | 0.00 | 0.00 | 0.00 | 43 | 1019.2 |
| 20260503174608 | 45 | 264 | 7.0 | 15.0 | 0.00 | 0.00 | 0.00 | 45 | 1019.3 |
| 20260503173114 | 46 | 236 | 4.0 | 13.0 | 0.00 | 0.00 | 0.00 | 43 | 1019.3 |
| 20260503171552 | 43 | 273 | 2.0 | 20.0 | 0.00 | 0.00 | 0.00 | 49 | 1019.4 |
| 20260503100105 | 25 | 348 | 2.0 | 14.0 | 0.00 | 0.00 | 0.00 | 88 | 1016.5 |
| 20260503081557 | 26 | 186 | 1.0 | 9.0 | 0.00 | 0.00 | 0.00 | 86 | 1015.9 |
| 20260503071607 | 27 | 274 | 4.0 | 12.0 | 0.00 | 0.00 | 0.00 | 85 | 1015.3 |
| 20260503070103 | 27 | 281 | 4.0 | 15.0 | 0.00 | 0.00 | 0.00 | 85 | 1015.3 |
| 20260503054558 | 29 | 263 | 2.0 | 10.0 | 0.00 | 0.00 | 0.00 | 85 | 1015.7 |
| 20260503053046 | 29 | 256 | 2.0 | 7.0 | 0.00 | 0.00 | 0.00 | 85 | 1015.8 |
| 20260503051551 | 29 | 279 | 4.0 | 10.0 | 0.00 | 0.00 | 0.00 | 84 | 1015.8 |
| 20260503050056 | 30 | 281 | 3.0 | 7.0 | 0.00 | 0.00 | 0.00 | 84 | 1015.8 |
| 20260503044547 | 30 | 47 | 1.0 | 10.0 | 0.00 | 0.00 | 0.00 | 84 | 1015.9 |
| 20260503043048 | 31 | 269 | 1.0 | 10.0 | 0.00 | 0.00 | 0.00 | 83 | 1015.9 |
| 20260503041548 | 31 | 274 | 0.0 | 6.0 | 0.00 | 0.00 | 0.00 | 84 | 1016.0 |
| 20260503040053 | 31 | 275 | 1.0 | 3.0 | 0.00 | 0.00 | 0.00 | 84 | 1016.2 |
| 20260503034551 | 31 | 305 | 1.0 | 5.0 | 0.00 | 0.00 | 0.00 | 82 | 1016.0 |
| 20260503033057 | 31 | 259 | 0.0 | 5.0 | 0.00 | 0.00 | 0.00 | 81 | 1016.1 |
| 20260503031547 | 32 | 0 | 2.0 | 4.0 | 0.00 | 0.00 | 0.00 | 80 | 1016.1 |
| 20260503030051 | 32 | 12 | 2.0 | 9.0 | 0.00 | 0.00 | 0.00 | 79 | 1016.2 |
| 20260503024551 | 32 | 70 | 4.0 | 10.0 | 0.00 | 0.00 | 0.00 | 76 | 1016.5 |
| 20260503023050 | 33 | 264 | 1.0 | 9.0 | 0.00 | 0.00 | 0.00 | 75 | 1016.4 |
| 20260503021549 | 33 | 33 | 2.0 | 10.0 | 0.00 | 0.00 | 0.00 | 74 | 1016.4 |
| 20260503020048 | 32 | 0 | 1.0 | 4.0 | 0.00 | 0.00 | 0.00 | 75 | 1016.2 |
| 20260503014602 | 33 | 5 | 2.0 | 4.0 | 0.00 | 0.00 | 0.00 | 74 | 1016.2 |
| 20260503013050 | 33 | 259 | 2.0 | 8.0 | 0.00 | 0.00 | 0.00 | 74 | 1016.2 |
| 20260503011601 | 33 | 275 | 3.0 | 9.0 | 0.00 | 0.00 | 0.00 | 74 | 1016.1 |
| 20260503010047 | 33 | 258 | 4.0 | 10.0 | 0.00 | 0.00 | 0.00 | 73 | 1016.0 |
| 20260503004548 | 34 | 252 | 5.0 | 12.0 | 0.00 | 0.00 | 0.00 | 72 | 1015.9 |
| 20260503003101 | 35 | 261 | 2.0 | 11.0 | 0.00 | 0.00 | 0.00 | 69 | 1015.9 |
| 20260503001545 | 35 | 0 | 3.0 | 9.0 | 0.00 | 0.00 | 0.00 | 67 | 1015.7 |
| 20260503000047 | 35 | 265 | 4.0 | 9.0 | 0.00 | 0.00 | 0.00 | 66 | 1015.6 |
| 20260502234607 | 36 | 274 | 4.0 | 12.0 | 0.00 | 0.00 | 0.00 | 65 | 1015.6 |
| 20260502233048 | 36 | 253 | 4.0 | 13.0 | 0.00 | 0.00 | 0.00 | 64 | 1015.4 |
| 20260502231551 | 36 | 252 | 4.0 | 10.0 | 0.00 | 0.00 | 0.00 | 64 | 1015.3 |
| 20260502230059 | 37 | 270 | 5.0 | 14.0 | 0.00 | 0.00 | 0.00 | 62 | 1015.4 |
| 20260502224556 | 37 | 259 | 4.0 | 15.0 | 0.00 | 0.00 | 0.00 | 62 | 1015.3 |
| 20260502223059 | 38 | 303 | 2.0 | 10.0 | 0.00 | 0.00 | 0.00 | 62 | 1015.3 |
| 20260502221549 | 38 | 257 | 3.0 | 10.0 | 0.00 | 0.00 | 0.00 | 60 | 1015.2 |
| 20260502220058 | 38 | 227 | 5.0 | 10.0 | 0.00 | 0.00 | 0.00 | 58 | 1015.1 |
| 20260502214549 | 39 | 337 | 5.0 | 13.0 | 0.00 | 0.00 | 0.00 | 60 | 1015.1 |
| 20260502213052 | 39 | 232 | 4.0 | 13.0 | 0.00 | 0.00 | 0.00 | 60 | 1015.0 |
| 20260502211549 | 39 | 291 | 1.0 | 17.0 | 0.00 | 0.00 | 0.00 | 60 | 1015.1 |
| 20260502210051 | 40 | 244 | 3.0 | 15.0 | 0.00 | 0.00 | 0.00 | 58 | 1015.0 |
| 20260502204546 | 40 | 215 | 3.0 | 12.0 | 0.00 | 0.00 | 0.00 | 60 | 1015.1 |